Location: ???????
(55.2903°N, 39.1554°E)
Time: 08:16:38
(UTC+00:00)

Cosmos 1371 Rocket - Pass Details

Date: 14 April 2024
Orbit: 752 x 787 km, 74.0° (Epoch: 19 May)

Event Time Altitude Azimuth Distance (km) Brightness Sun altitude
Rises 01:12:37 0° 330° (NNW) 3,232 7.3 -9.7°
Reaches altitude 10° 01:15:01 10° 326° (NNW) 2,307 6.5 -9.4°
Maximum altitude 01:20:07 56° 250° (WSW) 916 4.1 -8.8°
Drops below altitude 10° 01:25:14 10° 173° (S) 2,314 6.3 -8.1°
Sets 01:27:39 0° 169° (S) 3,243 7.0 -7.8°
